SHIYAN-12 02 (SY-12 02)

Last updated on Sun Apr 12 2026 00:02:56 GMT+0000 (Coordinated Universal Time)

1 50322U 21129B 26101.79354367 .00000147 00000+0 00000+0 0 9991 2 50322 3.5024 80.8039 0000721 24.6337 58.8126 1.00466042 15831
UTC large
Height (km)
Speed (km/s)
/
Latitude / Longitude
Inclination (degrees)
Orbital Period (minutes)
Azimuth
Elevation
Range (km)
Doppler Factor

Next 0 passes for location: London (51.5072 / 0.1276)

Sorry there are no passes over London.
SHIYAN-12 02 (SY-12 02)